Tracking 19709 objects as of 20-Jun-2019
HD Live streaming from Space Station
objects crossing your sky now

TITAN 3C TRANSTAGE DEB

Track TITAN 3C TRANSTAGE DEB now!


NORAD ID: 20760
Int'l Code: 1965-108AE
Perigee: 583.0 km
Apogee: 28,978.1 km
Inclination: 27.4 °
Period: 510.2 minutes
Semi major axis: 21151 km
RCS: 0.1468 m2 (medium)
Launch date: December 21, 1965
Source: United States (US)
Launch site: AIR FORCE EASTERN TEST RANGE (AFETR)

Note: This is SATELLITE DEBRIS
aabbcc
Your satellite tracking list
Your tracking list is empty




NASA's NSSDC Master Catalog

Two Line Element Set (TLE):
1 20760U 65108AE  19169.02635713 -.00000007  00000-0  84264-3 0  9993
2 20760  27.3782  24.3805 6712313 209.5780 351.7899  2.82221923256222
Source of the keplerian elements: AFSPC